EW9748 Weather Reports


time (UTC)temp
F
wind
direction
speed
knots
gust
knots
rain 1hr
in
rain 24hr
in
rain mn
in
humidity
%
barometer
mb
20260906220026 80 5 0.0 0.0 0.06 0.06 0.06 77 1005.1
20260906214516 80 15 0.0 0.0 0.06 0.06 0.06 78 1005.4
20260906213008 85 15 0.0 0.0 0.06 0.06 0.06 61 1005.7
20260906211503 94 10 0.0 0.0 0.00 0.00 0.00 36 1005.6
20260906210002 96 5 0.0 0.0 0.00 0.00 0.00 35 1005.9
20260906204602 96 5 0.0 0.0 0.00 0.00 0.00 35 1006.1
20260906203101 96 5 0.0 0.0 0.00 0.00 0.00 36 1006.2
20260906201635 95 5 0.0 0.0 0.00 0.00 0.00 37 1006.3
20260906200056 95 5 0.0 0.0 0.00 0.00 0.00 37 1006.5
20260906194603 97 5 0.0 0.0 0.00 0.00 0.00 35 1006.6
20260906193052 95 5 0.0 0.0 0.00 0.00 0.00 38 1006.9
20260906191606 95 5 0.0 0.0 0.00 0.00 0.00 37 1007.0
20260906190051 97 5 0.0 0.9 0.00 0.00 0.00 35 1007.1
20260906184553 96 5 0.0 5.2 0.00 0.00 0.00 36 1007.5
20260906183046 95 5 0.0 0.9 0.00 0.00 0.00 38 1007.7
20260906181559 94 5 0.0 7.0 0.00 0.00 0.00 40 1008.0
20260906180046 92 5 0.0 1.7 0.00 0.00 0.00 41 1008.2
20260906174545 92 5 0.0 5.2 0.00 0.00 0.00 41 1008.4
20260906173044 95 5 0.0 0.0 0.00 0.00 0.00 38 1008.6
20260906171541 94 5 0.0 0.0 0.00 0.00 0.00 38 1008.8
20260906170040 92 5 0.0 0.0 0.00 0.00 0.00 40 1008.9
20260906164539 94 5 0.0 0.0 0.00 0.00 0.00 39 1009.1
20260906163046 92 5 0.0 0.0 0.00 0.00 0.00 41 1009.0
20260906161534 92 5 0.0 0.0 0.00 0.00 0.00 42 1009.1
20260906160031 91 5 0.0 0.0 0.00 0.00 0.00 43 1009.1
20260906154527 90 5 0.0 0.0 0.00 0.00 0.00 46 1009.0
20260906153027 89 5 0.0 0.0 0.00 0.00 0.00 49 1008.9
20260906151521 87 5 0.0 0.0 0.00 0.00 0.00 53 1008.9
20260906150018 86 5 0.0 0.0 0.00 0.00 0.00 55 1008.7
20260906144513 84 5 0.0 0.0 0.00 0.00 0.00 59 1008.7
20260906143010 83 5 0.0 0.0 0.00 0.00 0.00 61 1008.8
20260906141508 81 5 0.0 0.0 0.00 0.00 0.00 63 1008.9
20260906140012 79 5 0.0 0.0 0.00 0.00 0.00 67 1008.8
20260906134505 77 5 0.0 0.0 0.00 0.00 0.00 70 1008.8
20260906133004 75 5 0.0 0.0 0.00 0.00 0.00 71 1008.8
20260906131505 73 5 0.0 0.0 0.00 0.00 0.00 71 1008.7
20260906130005 72 5 0.0 0.0 0.00 0.00 0.00 71 1008.6
20260906124601 72 5 0.0 0.0 0.00 0.00 0.00 71 1008.4
20260906123059 72 5 0.0 0.0 0.00 0.00 0.00 72 1008.1
20260906121607 72 5 0.0 0.0 0.00 0.00 0.00 70 1007.9
20260906120054 73 5 0.0 0.0 0.00 0.00 0.00 69 1007.8
20260906114602 73 5 0.0 0.0 0.00 0.00 0.00 69 1007.8
20260906113103 74 5 0.0 0.0 0.00 0.00 0.00 69 1007.5
20260906111549 74 5 0.0 0.0 0.00 0.00 0.00 67 1007.5
20260906110048 75 5 0.0 0.0 0.00 0.00 0.00 67 1007.5
20260906104548 75 5 0.0 0.0 0.00 0.00 0.00 66 1007.3
20260906103047 75 5 0.0 0.0 0.00 0.00 0.00 67 1007.1
20260906101547 74 5 0.0 0.0 0.00 0.00 0.00 67 1007.2
20260906100046 74 5 0.0 0.0 0.00 0.00 0.00 66 1007.1
20260906094549 74 5 0.0 0.0 0.00 0.00 0.00 65 1007.0
20260906093042 75 5 0.0 0.0 0.00 0.00 0.00 64 1006.9
20260906091546 75 5 0.0 0.0 0.00 0.00 0.00 62 1006.8
20260906090038 76 5 0.0 0.0 0.00 0.00 0.00 61 1006.8
20260906084536 77 5 0.0 0.0 0.00 0.00 0.00 59 1007.0
20260906083033 78 5 0.0 0.0 0.00 0.00 0.00 58 1006.8
20260906081539 78 5 0.0 0.0 0.00 0.00 0.00 58 1006.6
20260906080033 79 5 0.0 0.0 0.00 0.00 0.00 57 1006.7
20260906074527 79 5 0.0 0.0 0.00 0.00 0.00 57 1007.0
20260906073024 79 5 0.0 0.0 0.00 0.00 0.00 56 1007.1
20260906071521 79 5 0.0 0.0 0.00 0.00 0.00 55 1007.1
20260906070019 80 5 0.0 0.0 0.00 0.00 0.00 54 1007.2
20260906064524 80 5 0.0 0.0 0.00 0.00 0.00 53 1007.5
20260906063014 81 5 0.0 0.0 0.00 0.00 0.00 52 1007.4
20260906061512 82 5 0.0 0.0 0.00 0.00 0.00 51 1007.7
20260906060012 82 5 0.0 0.0 0.00 0.00 0.00 51 1007.8
20260906054509 82 5 0.0 0.0 0.00 0.00 0.00 51 1007.8
20260906053008 82 5 0.0 0.0 0.00 0.00 0.00 50 1007.8
20260906051510 82 5 0.0 0.0 0.00 0.00 0.00 49 1007.7
20260906050011 83 5 0.0 0.0 0.00 0.00 0.00 49 1007.7
20260906044504 83 5 0.0 0.0 0.00 0.00 0.00 48 1007.7
20260906043007 83 5 0.0 0.0 0.00 0.00 0.00 47 1007.7
20260906041504 84 5 0.0 0.0 0.00 0.00 0.00 47 1007.7
20260906040002 84 5 0.0 0.0 0.00 0.00 0.00 47 1007.6
20260906034502 84 5 0.0 0.0 0.00 0.00 0.00 46 1007.6
20260906033001 85 5 0.0 0.0 0.00 0.00 0.00 46 1007.3
20260906031625 85 5 0.0 0.9 0.00 0.00 0.00 45 1007.1
20260906030101 86 5 0.0 0.0 0.00 0.00 0.00 44 1006.9
20260906024604 87 5 0.0 0.0 0.00 0.00 0.00 43 1006.6
20260906023111 87 5 0.0 1.7 0.00 0.00 0.00 42 1006.5
20260906021600 87 5 0.0 0.0 0.00 0.00 0.00 41 1006.4
20260906020101 88 5 0.0 0.9 0.00 0.00 0.00 41 1006.1
20260906014557 88 5 0.0 0.0 0.00 0.00 0.00 40 1005.9
20260906013057 89 5 0.0 0.0 0.00 0.00 0.00 40 1005.7
20260906011604 90 5 0.0 0.0 0.00 0.00 0.00 39 1005.4
20260906010055 90 5 0.0 1.7 0.00 0.00 0.00 39 1005.2
20260906004559 91 5 0.0 5.2 0.00 0.00 0.00 39 1005.1
20260906003054 92 5 0.0 0.0 0.00 0.00 0.00 39 1005.0
20260906001553 92 5 0.0 0.0 0.00 0.00 0.00 38 1004.9
20260906000100 92 5 0.0 0.0 0.00 0.00 0.00 38 1004.9
20260905234554 93 5 0.0 0.0 0.00 0.00 0.00 37 1004.8
20260905233056 94 5 0.0 0.0 0.00 0.00 0.00 36 1004.6
20260905231552 95 5 0.0 0.0 0.00 0.00 0.00 35 1004.4
20260905230050 96 5 0.0 0.0 0.00 0.00 0.00 33 1004.5
20260905224549 97 5 0.0 1.7 0.00 0.00 0.00 34 1004.4
20260905223048 97 5 0.0 0.0 0.00 0.00 0.00 33 1004.5
20260905221600 97 5 0.0 0.0 0.00 0.00 0.00 33 1004.6